Time,TemperatureF,DewpointF,PressureIn,WindDirection,WindDirectionDegrees,WindSpeedMPH,WindSpeedGustMPH,Humidity,HourlyPrecipIn,Conditions,Clouds,dailyrainin,SoftwareType,DateUTC
2013-10-05 00:04:00,68.0,67.0,29.96,WNW,284,0.0,-999.0,97,-99.99,,,0.00,weatherlink.com 1.10,2013-10-05 04:04:00,
2013-10-05 00:19:00,67.8,67.0,29.96,WNW,284,0.0,-999.0,97,-99.99,,,0.00,weatherlink.com 1.10,2013-10-05 04:19:00,
2013-10-05 00:34:00,67.4,67.0,29.95,WNW,284,0.0,-999.0,97,-99.99,,,0.00,weatherlink.com 1.10,2013-10-05 04:34:00,
2013-10-05 00:49:00,67.0,66.0,29.95,WNW,284,0.0,-999.0,97,-99.99,,,0.00,weatherlink.com 1.10,2013-10-05 04:49:00,
2013-10-05 01:04:00,66.7,66.0,29.95,WNW,284,0.0,-999.0,97,-99.99,,,0.00,weatherlink.com 1.10,2013-10-05 05:04:00,
2013-10-05 01:19:00,66.5,66.0,29.95,WNW,284,0.0,-999.0,97,-99.99,,,0.00,weatherlink.com 1.10,2013-10-05 05:19:00,
2013-10-05 01:34:00,66.2,65.0,29.94,WNW,284,0.0,-999.0,97,-99.99,,,0.00,weatherlink.com 1.10,2013-10-05 05:34:00,
2013-10-05 01:49:00,66.0,65.0,29.95,WNW,284,0.0,-999.0,97,-99.99,,,0.00,weatherlink.com 1.10,2013-10-05 05:49:00,
2013-10-05 02:04:00,65.8,65.0,29.95,WNW,284,0.0,-999.0,97,-99.99,,,0.00,weatherlink.com 1.10,2013-10-05 06:04:00,
2013-10-05 02:19:00,65.5,65.0,29.95,WNW,284,0.0,-999.0,97,-99.99,,,0.00,weatherlink.com 1.10,2013-10-05 06:19:00,
2013-10-05 02:35:00,65.5,65.0,29.96,WNW,284,0.0,-999.0,97,-99.99,,,0.00,weatherlink.com 1.10,2013-10-05 06:35:00,
2013-10-05 02:50:00,65.5,65.0,29.95,WNW,284,0.0,-999.0,97,-99.99,,,0.00,weatherlink.com 1.10,2013-10-05 06:50:00,
2013-10-05 03:05:00,65.5,65.0,29.95,WNW,284,0.0,-999.0,98,-99.99,,,0.00,weatherlink.com 1.10,2013-10-05 07:05:00,
2013-10-05 03:20:00,65.7,65.0,29.94,WNW,284,0.0,-999.0,98,-99.99,,,0.00,weatherlink.com 1.10,2013-10-05 07:20:00,
2013-10-05 03:35:00,65.5,65.0,29.94,WNW,284,0.0,-999.0,98,-99.99,,,0.00,weatherlink.com 1.10,2013-10-05 07:35:00,
2013-10-05 03:50:00,65.4,65.0,29.94,WNW,284,0.0,-999.0,98,-99.99,,,0.00,weatherlink.com 1.10,2013-10-05 07:50:00,
2013-10-05 04:05:00,65.4,65.0,29.94,WNW,284,0.0,-999.0,98,-99.99,,,0.00,weatherlink.com 1.10,2013-10-05 08:05:00,
2013-10-05 04:20:00,65.6,65.0,29.93,West,281,2.0,-999.0,98,-99.99,,,0.00,weatherlink.com 1.10,2013-10-05 08:20:00,
2013-10-05 04:35:00,65.6,65.0,29.94,WSW,241,0.0,-999.0,98,-99.99,,,0.01,weatherlink.com 1.10,2013-10-05 08:35:00,
2013-10-05 04:50:00,65.3,65.0,29.92,WSW,241,0.0,-999.0,98,-99.99,,,0.02,weatherlink.com 1.10,2013-10-05 08:50:00,
2013-10-05 05:05:00,65.4,65.0,29.95,NNW,337,1.0,-999.0,98,-99.99,,,0.04,weatherlink.com 1.10,2013-10-05 09:05:00,
2013-10-05 05:20:00,65.0,65.0,29.95,South,173,0.0,-999.0,98,-99.99,,,0.20,weatherlink.com 1.10,2013-10-05 09:20:00,
2013-10-05 05:35:00,64.5,64.0,29.96,NW,319,0.0,-999.0,98,-99.99,,,0.22,weatherlink.com 1.10,2013-10-05 09:35:00,
2013-10-05 05:50:00,64.3,64.0,29.97,WNW,297,5.0,-999.0,98,-99.99,,,0.27,weatherlink.com 1.10,2013-10-05 09:50:00,
2013-10-05 06:05:00,64.3,64.0,29.96,WNW,286,0.0,-999.0,98,-99.99,,,0.28,weatherlink.com 1.10,2013-10-05 10:05:00,
2013-10-05 06:20:00,64.1,64.0,29.97,WNW,286,0.0,-999.0,98,-99.99,,,0.30,weatherlink.com 1.10,2013-10-05 10:20:00,
2013-10-05 06:35:00,64.0,64.0,29.97,WNW,286,0.0,-999.0,98,-99.99,,,0.32,weatherlink.com 1.10,2013-10-05 10:35:00,
2013-10-05 06:50:00,63.9,63.0,29.96,South,184,0.0,-999.0,98,-99.99,,,0.34,weatherlink.com 1.10,2013-10-05 10:50:00,
2013-10-05 07:05:00,63.9,63.0,29.96,South,184,0.0,-999.0,98,-99.99,,,0.34,weatherlink.com 1.10,2013-10-05 11:05:00,
2013-10-05 07:20:00,63.8,63.0,29.95,South,184,0.0,-999.0,98,-99.99,,,0.34,weatherlink.com 1.10,2013-10-05 11:20:00,
2013-10-05 07:35:00,63.8,63.0,29.96,South,184,1.0,-999.0,98,-99.99,,,0.36,weatherlink.com 1.10,2013-10-05 11:35:00,
2013-10-05 07:50:00,64.0,64.0,29.96,WNW,294,0.0,-999.0,98,-99.99,,,0.38,weatherlink.com 1.10,2013-10-05 11:50:00,
2013-10-05 08:05:00,64.0,64.0,29.95,WNW,294,0.0,-999.0,98,-99.99,,,0.39,weatherlink.com 1.10,2013-10-05 12:05:00,
2013-10-05 08:20:00,63.9,63.0,29.94,SSE,150,0.0,-999.0,98,-99.99,,,0.40,weatherlink.com 1.10,2013-10-05 12:20:00,
2013-10-05 08:35:00,63.8,63.0,29.94,SSE,161,5.0,-999.0,98,-99.99,,,0.40,weatherlink.com 1.10,2013-10-05 12:35:00,
2013-10-05 08:50:00,64.1,64.0,29.94,South,191,4.0,-999.0,98,-99.99,,,0.40,weatherlink.com 1.10,2013-10-05 12:50:00,
2013-10-05 09:05:00,64.4,64.0,29.95,SSE,157,1.0,-999.0,98,-99.99,,,0.40,weatherlink.com 1.10,2013-10-05 13:05:00,
2013-10-05 09:20:00,64.9,65.0,29.94,SSE,157,0.0,-999.0,99,-99.99,,,0.40,weatherlink.com 1.10,2013-10-05 13:20:00,
2013-10-05 09:35:00,65.5,65.0,29.94,SSE,165,5.0,-999.0,99,-99.99,,,0.40,weatherlink.com 1.10,2013-10-05 13:35:00,
2013-10-05 09:50:00,65.9,65.0,29.94,South,178,5.0,-999.0,98,-99.99,,,0.40,weatherlink.com 1.10,2013-10-05 13:50:00,
2013-10-05 10:05:00,66.7,66.0,29.93,South,190,5.0,-999.0,97,-99.99,,,0.40,weatherlink.com 1.10,2013-10-05 14:05:00,
2013-10-05 10:20:00,67.6,67.0,29.93,South,186,5.0,-999.0,96,-99.99,,,0.40,weatherlink.com 1.10,2013-10-05 14:20:00,
2013-10-05 10:35:00,68.1,66.0,29.94,SW,229,10.0,-999.0,94,-99.99,,,0.40,weatherlink.com 1.10,2013-10-05 14:35:00,
2013-10-05 10:50:00,67.6,66.0,29.93,SSW,192,10.0,-999.0,94,-99.99,,,0.40,weatherlink.com 1.10,2013-10-05 14:50:00,
2013-10-05 11:05:00,67.1,66.0,29.93,South,191,0.0,-999.0,95,-99.99,,,0.40,weatherlink.com 1.10,2013-10-05 15:05:00,
2013-10-05 11:20:00,67.1,66.0,29.94,South,169,5.0,-999.0,95,-99.99,,,0.40,weatherlink.com 1.10,2013-10-05 15:20:00,
2013-10-05 11:35:00,67.3,66.0,29.94,SSW,202,1.0,-999.0,95,-99.99,,,0.40,weatherlink.com 1.10,2013-10-05 15:35:00,
2013-10-05 11:50:00,67.6,66.0,29.93,SSW,192,2.0,-999.0,95,-99.99,,,0.40,weatherlink.com 1.10,2013-10-05 15:50:00,
2013-10-05 12:05:00,68.0,66.0,29.93,South,175,7.0,-999.0,94,-99.99,,,0.40,weatherlink.com 1.10,2013-10-05 16:05:00,
2013-10-05 12:20:00,68.5,67.0,29.93,South,182,5.0,-999.0,93,-99.99,,,0.40,weatherlink.com 1.10,2013-10-05 16:20:00,
2013-10-05 12:35:00,68.9,67.0,29.93,SSW,198,4.0,-999.0,93,-99.99,,,0.40,weatherlink.com 1.10,2013-10-05 16:35:00,
2013-10-05 12:50:00,69.4,67.0,29.92,SSW,198,8.0,-999.0,92,-99.99,,,0.40,weatherlink.com 1.10,2013-10-05 16:50:00,
2013-10-05 13:05:00,69.6,67.0,29.93,SSW,211,7.0,-999.0,92,-99.99,,,0.40,weatherlink.com 1.10,2013-10-05 17:05:00,
2013-10-05 13:20:00,70.2,68.0,29.91,SSW,199,6.0,-999.0,92,-99.99,,,0.40,weatherlink.com 1.10,2013-10-05 17:20:00,
2013-10-05 13:35:00,70.3,68.0,29.91,SSW,192,8.0,-999.0,91,-99.99,,,0.40,weatherlink.com 1.10,2013-10-05 17:35:00,
2013-10-05 13:50:00,70.6,68.0,29.90,SW,219,6.0,-999.0,91,-99.99,,,0.40,weatherlink.com 1.10,2013-10-05 17:50:00,
2013-10-05 14:20:00,70.7,68.0,29.90,SSW,198,8.0,-999.0,90,-99.99,,,0.40,weatherlink.com 1.10,2013-10-05 18:20:00,
2013-10-05 14:35:00,70.7,68.0,29.90,SSW,192,6.0,-999.0,91,-99.99,,,0.40,weatherlink.com 1.10,2013-10-05 18:35:00,
2013-10-05 14:50:00,70.8,68.0,29.89,SSW,213,3.0,-999.0,91,-99.99,,,0.40,weatherlink.com 1.10,2013-10-05 18:50:00,
2013-10-05 15:05:00,71.0,68.0,29.89,SSW,195,5.0,-999.0,91,-99.99,,,0.40,weatherlink.com 1.10,2013-10-05 19:05:00,
2013-10-05 15:20:00,71.2,68.0,29.88,SSE,158,0.0,-999.0,90,-99.99,,,0.40,weatherlink.com 1.10,2013-10-05 19:20:00,
2013-10-05 15:35:00,71.2,68.0,29.87,SSW,203,2.0,-999.0,90,-99.99,,,0.40,weatherlink.com 1.10,2013-10-05 19:35:00,
2013-10-05 15:50:00,71.3,68.0,29.87,SSW,199,3.0,-999.0,90,-99.99,,,0.40,weatherlink.com 1.10,2013-10-05 19:50:00,
2013-10-05 16:05:00,71.3,68.0,29.86,SSW,192,2.0,-999.0,90,-99.99,,,0.40,weatherlink.com 1.10,2013-10-05 20:05:00,
2013-10-05 16:21:00,71.3,69.0,29.85,South,184,2.0,-999.0,91,-99.99,,,0.40,weatherlink.com 1.10,2013-10-05 20:21:00,
2013-10-05 16:36:00,71.3,69.0,29.85,SW,228,2.0,-999.0,91,-99.99,,,0.40,weatherlink.com 1.10,2013-10-05 20:36:00,
2013-10-05 16:51:00,71.3,69.0,29.85,South,169,0.0,-999.0,91,-99.99,,,0.40,weatherlink.com 1.10,2013-10-05 20:51:00,
2013-10-05 17:06:00,71.4,69.0,29.84,South,184,5.0,-999.0,92,-99.99,,,0.40,weatherlink.com 1.10,2013-10-05 21:06:00,
2013-10-05 17:21:00,71.8,69.0,29.85,SSW,200,5.0,-999.0,91,-99.99,,,0.40,weatherlink.com 1.10,2013-10-05 21:21:00,
2013-10-05 17:36:00,72.0,69.0,29.85,South,190,6.0,-999.0,91,-99.99,,,0.40,weatherlink.com 1.10,2013-10-05 21:36:00,
2013-10-05 17:51:00,72.0,69.0,29.85,SW,223,7.0,-999.0,91,-99.99,,,0.40,weatherlink.com 1.10,2013-10-05 21:51:00,
2013-10-05 18:06:00,71.8,69.0,29.84,SSW,200,4.0,-999.0,89,-99.99,,,0.40,weatherlink.com 1.10,2013-10-05 22:06:00,
2013-10-05 18:21:00,71.6,68.0,29.83,SSE,155,2.0,-999.0,89,-99.99,,,0.40,weatherlink.com 1.10,2013-10-05 22:21:00,
2013-10-05 18:36:00,71.3,68.0,29.84,SW,215,6.0,-999.0,90,-99.99,,,0.40,weatherlink.com 1.10,2013-10-05 22:36:00,
2013-10-05 18:51:00,71.1,68.0,29.84,South,190,0.0,-999.0,90,-99.99,,,0.40,weatherlink.com 1.10,2013-10-05 22:51:00,
2013-10-05 19:06:00,70.8,68.0,29.84,SSW,196,4.0,-999.0,91,-99.99,,,0.40,weatherlink.com 1.10,2013-10-05 23:06:00,
2013-10-05 19:21:00,70.5,68.0,29.84,South,184,2.0,-999.0,91,-99.99,,,0.40,weatherlink.com 1.10,2013-10-05 23:21:00,
2013-10-05 19:36:00,70.3,68.0,29.84,SW,229,0.0,-999.0,91,-99.99,,,0.40,weatherlink.com 1.10,2013-10-05 23:36:00,
2013-10-05 19:51:00,69.9,68.0,29.84,South,176,1.0,-999.0,92,-99.99,,,0.40,weatherlink.com 1.10,2013-10-05 23:51:00,
2013-10-05 20:06:00,69.7,67.0,29.83,South,181,5.0,-999.0,92,-99.99,,,0.40,weatherlink.com 1.10,2013-10-06 00:06:00,
2013-10-05 20:21:00,69.5,68.0,29.83,SSE,164,2.0,-999.0,93,-99.99,,,0.40,weatherlink.com 1.10,2013-10-06 00:21:00,
2013-10-05 20:36:00,69.2,67.0,29.84,South,175,4.0,-999.0,92,-99.99,,,0.40,weatherlink.com 1.10,2013-10-06 00:36:00,
2013-10-05 20:51:00,68.9,66.0,29.84,South,181,1.0,-999.0,90,-99.99,,,0.40,weatherlink.com 1.10,2013-10-06 00:51:00,
2013-10-05 21:06:00,68.6,66.0,29.84,SSE,155,5.0,-999.0,91,-99.99,,,0.40,weatherlink.com 1.10,2013-10-06 01:06:00,
2013-10-05 21:21:00,68.3,66.0,29.84,South,181,4.0,-999.0,91,-99.99,,,0.40,weatherlink.com 1.10,2013-10-06 01:21:00,
2013-10-05 21:36:00,68.0,65.0,29.83,South,185,3.0,-999.0,91,-99.99,,,0.40,weatherlink.com 1.10,2013-10-06 01:36:00,
2013-10-05 21:51:00,67.7,65.0,29.83,South,170,2.0,-999.0,92,-99.99,,,0.40,weatherlink.com 1.10,2013-10-06 01:51:00,
2013-10-05 22:06:00,67.3,65.0,29.83,South,170,4.0,-999.0,93,-99.99,,,0.40,weatherlink.com 1.10,2013-10-06 02:06:00,
2013-10-05 22:21:00,66.9,66.0,29.83,South,182,2.0,-999.0,95,-99.99,,,0.41,weatherlink.com 1.10,2013-10-06 02:21:00,
2013-10-05 22:36:00,66.8,65.0,29.82,SE,139,2.0,-999.0,95,-99.99,,,0.41,weatherlink.com 1.10,2013-10-06 02:36:00,
2013-10-05 22:51:00,66.8,66.0,29.82,SSE,157,2.0,-999.0,96,-99.99,,,0.41,weatherlink.com 1.10,2013-10-06 02:51:00,
2013-10-05 23:06:00,66.8,66.0,29.81,SSE,162,7.0,-999.0,97,-99.99,,,0.42,weatherlink.com 1.10,2013-10-06 03:06:00,
2013-10-05 23:21:00,67.0,66.0,29.80,South,186,6.0,-999.0,97,-99.99,,,0.42,weatherlink.com 1.10,2013-10-06 03:21:00,
2013-10-05 23:36:00,67.1,66.0,29.80,South,178,6.0,-999.0,97,-99.99,,,0.42,weatherlink.com 1.10,2013-10-06 03:36:00,
2013-10-05 23:51:00,67.3,67.0,29.79,South,190,8.0,-999.0,98,-99.99,,,0.42,weatherlink.com 1.10,2013-10-06 03:51:00,